Weather History for Stanley, ND

Change the Weather History Date:

Friday, July 5, 2013

  Actual Average (KMOT) Record (KMOT)
Temperature  
Mean Temperature 68 °F 68 °F  
Max Temperature 80 °F 80 °F 105 °F (1937)
Min Temperature 55 °F 57 °F 33 °F (1915)
Cooling Degree Days 2 5  
Month to date cooling degree days 22  
Year to date cooling degree days 111  
Since 1 June cooling degree days 95  
Growing Degree Days 18 (Base 50)    
Moisture  
Dew Point 62 °F    
Average Humidity 91    
Maximum Humidity 100    
Minimum Humidity 58    
Precipitation  
Precipitation 1.85 in 0.09 in 1.65 in (1998)
Month to date precipitation 0.46  
Year to date precipitation 9.43  
Sea Level Pressure  
Sea Level Pressure 29.82 in    
Wind  
Wind Speed 5 mph (ESE)    
Max Wind Speed 33 mph    
Max Gust Speed 55 mph    
Visibility 10 miles    
Events Rain , Thunderstorm    
T = Trace of Precipitation, MM = Missing Value Source: NWS Daily Summary

Daily Weather History Graph

Daily Weather History Graph

Search for Another Location

Airport:

Trip Planner

Search our weather history database for the weather conditions in past years. The results will help you decide how hot, cold, wet, or windy it might be!

Date:

Astronomy

Jul. 05, 2013 Rise Set
Actual Time 5:55 AM CDT 9:52 PM CDT
Civil Twilight 5:14 AM CDT 10:33 PM CDT
Nautical Twilight 4:18 AM CDT 11:29 PM CDT
Astronomical Twilight 2:46 AM CDT 1:00 AM CDT
Moon 4:01 AM CDT (7/5) 7:44 PM CDT (7/5)
Length of Visible Light 17h 18m
Length of Day
15h 56m
Waning Crescent, 6% of the Moon is Illuminated
Jul 5
Waning Crescent
Jul 8
New
Jul 15
First Quarter
Jul 22
Full
Jul 29
Last Quarter

Hourly Weather History & Observations

Time (CDT) Temp. Heat Index Dew Point Humidity Pressure Visibility Wind Dir Wind Speed Gust Speed Precip Events Conditions
12:15 AM 60.8 °F - 60.8 °F 100% 29.86 in 10.0 mi Calm Calm - N/A   Clear
12:35 AM 60.8 °F - 60.8 °F 100% 29.86 in 10.0 mi Calm Calm - N/A   Clear
12:55 AM 59.0 °F - 59.0 °F 100% 29.86 in 10.0 mi Calm Calm - N/A   Clear
1:15 AM 59.0 °F - 59.0 °F 100% 29.86 in 5.0 mi North 3.5 mph - N/A   Clear
1:35 AM 59.0 °F - 59.0 °F 100% 29.86 in 10.0 mi Calm Calm - N/A   Clear
1:55 AM 59.0 °F - 59.0 °F 100% 29.85 in 10.0 mi Calm Calm - N/A   Scattered Clouds
2:15 AM 59.0 °F - 59.0 °F 100% 29.85 in 10.0 mi NE 3.5 mph - N/A   Mostly Cloudy
2:35 AM 59.0 °F - 59.0 °F 100% 29.86 in 10.0 mi Calm Calm - N/A   Overcast
2:55 AM 59.0 °F - 59.0 °F 100% 29.86 in 10.0 mi Calm Calm - N/A   Scattered Clouds
3:15 AM 57.2 °F - 57.2 °F 100% 29.85 in 10.0 mi Calm Calm - N/A   Partly Cloudy
3:35 AM 57.2 °F - 57.2 °F 100% 29.84 in 10.0 mi NNE 3.5 mph - N/A   Clear
3:55 AM 57.2 °F - 57.2 °F 100% 29.84 in 10.0 mi Calm Calm - N/A   Partly Cloudy
4:15 AM 57.2 °F - 57.2 °F 100% 29.83 in 10.0 mi Calm Calm - N/A   Partly Cloudy
4:35 AM 57.2 °F - 57.2 °F 100% 29.83 in 10.0 mi Calm Calm - N/A   Clear
4:55 AM 57.2 °F - 57.2 °F 100% 29.83 in 10.0 mi Calm Calm - N/A   Clear
5:15 AM 57.2 °F - 57.2 °F 100% 29.82 in 10.0 mi Calm Calm - N/A   Clear
5:35 AM 55.4 °F - 55.4 °F 100% 29.82 in 10.0 mi Calm Calm - N/A   Clear
5:55 AM 55.4 °F - 55.4 °F 100% 29.82 in 9.0 mi Calm Calm - N/A   Clear
6:15 AM 55.4 °F - 55.4 °F 100% 29.82 in 10.0 mi SW 5.8 mph - N/A   Clear
6:35 AM 55.4 °F - 55.4 °F 100% 29.82 in 10.0 mi Calm Calm - N/A   Clear
6:55 AM 57.2 °F - 57.2 °F 100% 29.82 in 10.0 mi Calm Calm - N/A   Scattered Clouds
7:15 AM 60.8 °F - 60.8 °F 100% 29.83 in 10.0 mi Calm Calm - N/A   Mostly Cloudy
7:35 AM 62.6 °F - 62.6 °F 100% 29.83 in 10.0 mi ESE 3.5 mph - N/A   Mostly Cloudy
7:55 AM 62.6 °F - 62.6 °F 100% 29.82 in 10.0 mi East 4.6 mph - N/A   Partly Cloudy
8:15 AM 66.2 °F - 64.4 °F 94% 29.83 in 10.0 mi East 4.6 mph - N/A   Clear
8:35 AM 66.2 °F - 64.4 °F 94% 29.82 in 10.0 mi East 4.6 mph - N/A   Clear
8:55 AM 68.0 °F - 64.4 °F 88% 29.82 in 10.0 mi East 4.6 mph - N/A   Partly Cloudy
9:15 AM 69.8 °F - 66.2 °F 88% 29.84 in 10.0 mi ESE 4.6 mph - N/A   Mostly Cloudy
9:35 AM 71.6 °F - 68.0 °F 88% 29.84 in 10.0 mi ESE 4.6 mph - N/A   Scattered Clouds
9:55 AM 71.6 °F - 68.0 °F 88% 29.84 in 10.0 mi SE 5.8 mph - N/A   Mostly Cloudy
10:15 AM 73.4 °F - 66.2 °F 78% 29.83 in 10.0 mi SE 10.4 mph - N/A   Partly Cloudy
10:35 AM 75.2 °F - 68.0 °F 78% 29.81 in 10.0 mi SE 9.2 mph - N/A   Clear
10:55 AM 75.2 °F - 66.2 °F 73% 29.81 in 10.0 mi SSE 12.7 mph - N/A   Clear
11:15 AM 75.2 °F - 64.4 °F 69% 29.81 in 10.0 mi SE 12.7 mph - N/A   Clear
11:35 AM 77.0 °F - 64.4 °F 65% 29.81 in 10.0 mi SE 12.7 mph - N/A   Clear
12:15 PM 77.0 °F - 64.4 °F 65% 29.81 in 10.0 mi SSE 12.7 mph - N/A   Clear
1:15 PM 77.0 °F - 64.4 °F 65% 29.80 in 10.0 mi SE 12.7 mph 18.4 mph N/A   Clear
1:35 PM 77.0 °F - 64.4 °F 65% 29.81 in 10.0 mi SE 11.5 mph 18.4 mph N/A   Clear
1:55 PM 78.8 °F - 64.4 °F 61% 29.81 in 10.0 mi ESE 12.7 mph - N/A   Clear
2:55 PM 80.6 °F 82.3 °F 64.4 °F 58% 29.80 in 10.0 mi SE 12.7 mph - N/A   Clear
3:15 PM 80.6 °F 82.7 °F 66.2 °F 61% 29.79 in 10.0 mi SSE 12.7 mph 17.3 mph N/A   Partly Cloudy
3:35 PM 80.6 °F 82.7 °F 66.2 °F 61% 29.78 in 10.0 mi ESE 12.7 mph - N/A   Mostly Cloudy
3:55 PM 80.6 °F 82.3 °F 64.4 °F 58% 29.77 in 10.0 mi SE 12.7 mph 20.7 mph N/A   Scattered Clouds
4:15 PM 77.0 °F - 64.4 °F 65% 29.78 in 10.0 mi SE 12.7 mph 18.4 mph N/A   Mostly Cloudy
4:35 PM 77.0 °F - 66.2 °F 69% 29.77 in 10.0 mi ESE 11.5 mph - N/A   Mostly Cloudy
4:55 PM 77.0 °F - 66.2 °F 69% 29.75 in 10.0 mi ESE 12.7 mph 20.7 mph N/A Thunderstorm Mostly Cloudy
5:15 PM 73.4 °F - 66.2 °F 78% 29.80 in 10.0 mi North 12.7 mph 26.5 mph N/A Thunderstorm Mostly Cloudy
5:35 PM 62.6 °F - 62.6 °F 100% 29.80 in 0.2 mi North 33.4 mph 55.2 mph 1.31 in Rain , Thunderstorm Heavy Thunderstorms and Rain
5:55 PM 60.8 °F - 60.8 °F 100% 29.81 in 1.0 mi NNE 17.3 mph 39.1 mph 1.77 in Rain , Thunderstorm Heavy Thunderstorms and Rain
6:35 PM 62.6 °F - 62.6 °F 100% 29.76 in 10.0 mi East 10.4 mph - 0.05 in Thunderstorm Mostly Cloudy
6:55 PM 60.8 °F - 60.8 °F 100% 29.78 in 10.0 mi East 12.7 mph 18.4 mph 0.05 in Thunderstorm Scattered Clouds
7:15 PM 60.8 °F - 60.8 °F 100% 29.78 in 10.0 mi SE 9.2 mph - N/A Thunderstorm Scattered Clouds
7:35 PM 62.6 °F - 62.6 °F 100% 29.83 in 10.0 mi South 5.8 mph - N/A Thunderstorm Mostly Cloudy
7:55 PM 60.8 °F - 60.8 °F 100% 29.83 in 2.5 mi South 3.5 mph - 0.03 in Rain , Thunderstorm Rain
8:15 PM 62.6 °F - 62.6 °F 100% 29.81 in 10.0 mi East 9.2 mph - N/A Rain , Thunderstorm Light Rain
8:35 PM 62.6 °F - 62.6 °F 100% 29.81 in 10.0 mi ESE 16.1 mph 23.0 mph N/A   Mostly Cloudy
8:55 PM 62.6 °F - 62.6 °F 100% 29.82 in 10.0 mi NE 4.6 mph - N/A Rain , Thunderstorm Light Rain
9:15 PM 62.6 °F - 62.6 °F 100% 29.82 in 10.0 mi East 6.9 mph - N/A   Scattered Clouds
9:35 PM 62.6 °F - 62.6 °F 100% 29.83 in 10.0 mi East 5.8 mph - N/A   Mostly Cloudy
9:55 PM 62.6 °F - 62.6 °F 100% 29.82 in 10.0 mi East 10.4 mph - N/A   Overcast
10:15 PM 62.6 °F - 62.6 °F 100% 29.82 in 10.0 mi SE 10.4 mph - N/A   Mostly Cloudy
10:35 PM 62.6 °F - 62.6 °F 100% 29.82 in 10.0 mi ESE 10.4 mph - N/A   Mostly Cloudy
10:55 PM 62.6 °F - 62.6 °F 100% 29.82 in 10.0 mi SE 8.1 mph - N/A   Partly Cloudy
11:15 PM 62.6 °F - 62.6 °F 100% 29.82 in 10.0 mi SSE 6.9 mph - N/A   Partly Cloudy
11:35 PM 62.6 °F - 62.6 °F 100% 29.81 in 10.0 mi SSE 9.2 mph - N/A   Clear
11:55 PM 60.8 °F - 60.8 °F 100% 29.83 in 10.0 mi South 9.2 mph - N/A   Clear